Regional Weather Roundup
Issued by NWS

Home | Current Version | Previous Version | Graphics & Text | Print | Product List | Glossary On
Versions: 1 2 3 4 5 6 7 8 9 10 11 12 13 14 15 16 17 18 19 20 21 22 23 24 25 26 27 28 29 30 31 32 33 34 35 36 37 38 39 40 41 42 43 44 45 46 47 48 49 50
000
ASUS45 KTFX 302310
RWRMT
MONTANA REGIONAL WEATHER ROUNDUP
NATIONAL WEATHER SERVICE GREAT FALLS MT
500 PM MDT SUN AUG 30 2015

NOTE: "FAIR" INDICATES FEW OR NO CLOUDS BELOW 12000 FEET WITH NO
SIGNIFICANT WEATHER AND/OR OBSTRUCTIONS TO VISIBILITY.

MTZ001>007-043-310000-
WEST OF THE DIVIDE

CITY           SKY/WX    TMP DP  RH WIND       PRES   REMARKS
KALISPELL      CLOUDY    60  43  53 SW9       29.91R
MISSOULA       CLOUDY    62  45  53 W8        29.94R
BUTTE          PTSUNNY   74  28  18 W12G24    29.86F
MULLAN PASS    LGT RAIN  41  40  96 SW9G20    30.01R FOG
DEER LODGE       N/A     68  39  34 NW28G36   29.87R
EUREKA           N/A     61  43  51 SE12G20   29.88S
HAMILTON         N/A     72  34  25 W10       29.86S
LIBBY            N/A     59  46  63 SE9       29.90F
$$

MTZ008-052>055-310000-
SOUTHWEST MONTANA

CITY           SKY/WX    TMP DP  RH WIND       PRES   REMARKS
BOZEMAN        PTSUNNY   77  50  38 N8        29.78F
DILLON         MOSUNNY   79  26  14 W26G35    29.83S
W YELLOWSTONE  MOSUNNY   68  36  30 SW18G33   30.03S
$$

MTZ009-010-012-014-046-048-049-054-310000-
EAST SLOPES AND CENTRAL MONTANA

CITY           SKY/WX    TMP DP  RH WIND       PRES   REMARKS
CUT BANK       PTSUNNY   69  39  33 W23G30    29.79R
GREAT FALLS    MOSUNNY   80  34  19 W20G26    29.72F
MALMSTROM AFB  MOSUNNY   79  35  20 W17G23    29.72F
HELENA         PTSUNNY   78  39  24 W20       29.76R
CONRAD           N/A     76  34  21 SW14      29.80S
$$

MTZ011-013-016-021-045-047-050-051-310000-
NORTH CENTRAL MONTANA

CITY           SKY/WX    TMP DP  RH WIND       PRES   REMARKS
HAVRE          MOSUNNY   82  45  27 W14       29.68F
LEWISTOWN      HVY RAIN  69  50  50 SW21G41   29.82R
N BAR RANCH      N/A     66  55  68 NW5       29.81F
CHINOOK          N/A     81  48  32 CALM      29.68F
FORT BENTON      N/A     82  36  18 W14G24    29.70F
$$

MTZ017>020-022>027-061-062-310000-
NORTHEAST MONTANA

CITY           SKY/WX    TMP DP  RH WIND       PRES   REMARKS
GLASGOW        SUNNY     84  49  29 SW7       29.69F
JORDAN           N/A     87  47  24 CALM      29.70F
SIDNEY         PTSUNNY   84  45  24 N10       29.72S
WOLF POINT     SUNNY     87  48  25 W10       29.71S
MALTA            N/A     84  48  28 MISG      29.68F
PLENTYWOOD       N/A     84  48  28 SE5       29.71S
POPLAR           N/A     86  50  28 SE5       29.71F
$$

MTZ028>42-056>058-310000-
SOUTHCENTRAL AND SOUTHEAST MONTANA

CITY           SKY/WX    TMP DP  RH WIND       PRES   REMARKS
BAKER          PTSUNNY   85  49  28 N13       29.78F
BILLINGS       PTSUNNY   82  48  30 E13       29.77F
LIVINGSTON     SUNNY     84  32  15 SW32G41   29.77F
MILES CITY     PTSUNNY   84  50  30 NE12      29.75F
EKALAKA          N/A     80  48  32 N7        29.82F
FORSYTH          N/A     82  48  30 E12       29.73F
LAUREL           N/A     81  48  31 NE6       29.78F
$$

REGIONAL REPORTS...DAKOTAS

CITY           SKY/WX    TMP DP  RH WIND       PRES   REMARKS
WILLISTON      PTSUNNY   85  43  22 N14       29.71F
MINOT          CLOUDY    84  56  38 W15G23    29.65R HAZE
DICKINSON      MOSUNNY   87  50  27 N14       29.73  HAZE
CROSBY           N/A     81  43  26 N10       29.71S
BISMARCK       MOSUNNY   98  58  26 S7        29.63F HX  97
GRAND FORKS    CLOUDY    84  68  58 S14G26    29.67S
FARGO          MOSUNNY   86  68  54 SE15G28   29.72F
BUFFALO SD       N/A     90  52  27 NW16      29.70S
RAPID CITY     MOSUNNY   93  59  31 NW12      29.73S HX  92
$$

REGIONAL REPORTS...WYOMING/IDAHO/WASHINGTON

CITY           SKY/WX    TMP DP  RH WIND       PRES   REMARKS
GILLETTE       LGT RAIN  82  46  28 W20G28    29.86R
SHERIDAN       CLOUDY    83  49  30 SW5       29.81F
BUFFALO WY     CLOUDY    78  50  37 N7        29.91F
CODY           PTSUNNY   82  39  21 W12G23    29.86F
YELLOWSTONE LA   N/A     66  39  37 VRB6G17   30.14F
IDAHO FALLS    MOSUNNY   77  33  20 SW15G26   29.97F
SALMON         PTSUNNY   75  28  17 W23G32    29.82R
BOISE          MOSUNNY   79  41  25 NW13      29.96S
SPOKANE        PTSUNNY   63  50  62 S18       29.91S
$$

REGIONAL REPORTS...ALBERTA

CITY           SKY/WX    TMP DP  RH WIND       PRES   REMARKS
EDMONTON       SUNNY     73  39  29 W13G21    29.50R
CALGARY        PTSUNNY   70  34  26 SW16      29.59S
LETHBRIDGE     PTSUNNY   68  39  34 SW28G38   29.72R
MEDICINE HAT   MOSUNNY   81  32  17 SW23G30   29.62F
WATERTON GATE    N/A     52  43  71 SW31G44     N/A
CARDSTON         N/A     61  39  44 W18G29      N/A
MILK RIVER       N/A     70  36  28 SW28G39     N/A
ONEFOUR          N/A     77  30  18 W20G26      N/A
$$

REGIONAL REPORTS...SASKATCHEWAN

CITY           SKY/WX    TMP DP  RH WIND       PRES   REMARKS
SWIFT CURRENT  SUNNY     81  41  24 SW24G32   29.64F
REGINA         MOSUNNY   73  57  56 CALM      29.67F
SASKATOON      MOSUNNY   81  45  28 SW20      29.57F
CYPRESS HILLS    N/A     72  30  21 W17G29      N/A
ROCKGLEN         N/A     77  48  36 SW18G24     N/A
ASSINIBOIA       N/A     81  37  21 W7          N/A
$$



USA.gov is the U.S. government's official web portal to all federal, state and local government web resources and services.